sat.trackr.live / text

‹ back to catalog

STARLINK-31963

NORAD 59893 · 2024-100J

PAYLOAD ACTIVE UNKNOWN

§ Identity

Operator
Country
US
Launch date
2024-05-28
Launch site
AFETR
Launch vehicle
Mass (kg)
RCS (m²)

Purposes: comms

External: N2YO · Heavens-Above · Gunter

§ Orbital elements

Epoch: 2026-09-21T21:40:51.829824Z

Period
94.27 min
Inclination
43.0043°
Eccentricity
0.0001428
Mean motion
15.27559709 rev/d
Perigee alt
482.1 km
Apogee alt
484.1 km
Semi-major
6,861.2 km
B*
-5.9445e-5
RAAN
97.4220°
Arg perigee
284.4050°
Mean anomaly
75.6643°
Rev number
13,116

§ Raw data

STARLINK-319631 59893U 24100J   26264.90337766 -.00001897  00000+0 -59445-4 0  99992 59893  43.0043  97.4220 0001428 284.4050  75.6643 15.27559709131165

JSON: /api/v1/satellites/59893 · /tle

For live sub-satellite position, see the globe view (requires WebGL).

§ Visibility from observer

Set your observer location to see the next 7 days of passes ≥ 10°. The values pass through the URL so the page stays shareable.

No JS? Fill the form by hand. The geolocation button needs JavaScript.